Mist van: 23-01-2020 02:00 tot: 09:00 waarschuwing voor: Mist niveau: Geel info button

Weerstation Grootegast  Weerstation Grootegast


15 daagse weersverwachting Bodø (NO)

  • Overzicht
  • Per uur
  • 15 dagen
  • Extra
  • Vergelijk
  • Kaarten
  • Dagkaart
  • Meer »
  • Info
  • Statistieken
  • Directe link
    Temp 6h Neerslag Wind  
 09:51     14:41    Daglengte: 4:50 Vandaag
07:00
7.3 mm
11
13:00
22.6 mm
12
warningclass
19:00
19.5 mm
13
warningclass
 09:47     14:45    Daglengte: 4:58 Morgen
01:00
18.9 mm
11
07:00
20.7 mm
9
13:00
23.7 mm
7
19:00
30.8 mm
8
warningclass
 09:43     14:50    Daglengte: 5:07 Zaterdag 25 Jan
01:00
28.5 mm
7
07:00
30.7 mm
8
13:00
50.1 mm
4
19:00
18.5 mm
3
warningclass
Locatie info
Region: Nordland
Latitude: 67.2860°N
Longitude: 14.3998°E
22 masl
Postcode: 8006
Temp/Neerslag /Baro Onweer/DauwpuntSneeuw
    Temp Baro 1h Neerslag Dauwpunt Wind UV BewolkingSneeuw  
 09:51     14:41    Daglengte: 4:50 Vandaag
03:00
Voelt als: -1.9°
1007.6 hPa
26%
1.3°
4
Windvlaag: 5.3 m/s
89%
04:00
Voelt als: -3.5°
1004.0 hPa 1.0 mm
82%
0.3°
6
Windvlaag: 7.5 m/s
91%2 cm
05:00
Voelt als: -3.8°
1001.3 hPa 1.6 mm
82%
0.3°
6
Windvlaag: 9.1 m/s
91%2 cm
06:00
Voelt als: -2.7°
998.7 hPa 1.9 mm
82%
1.7°
8
Windvlaag: 10.4 m/s
91%2 cm
07:00
Voelt als: -2.1°
997.2 hPa 2.7 mm
82%
3.0°
11
Windvlaag: 14.6 m/s
91%2 cm
08:00
Voelt als: -1.3°
995.7 hPa 3.9 mm
82%
4.0°
11
Windvlaag: 16.4 m/s
91%2 cm
09:00
Voelt als: -0.5°
994.5 hPa 4.5 mm
82%
4.7°
11
Windvlaag: 16.9 m/s
91%2 cm
10:00
Voelt als: -0.2°
993.5 hPa 4.7 mm
82%
4.8°
11
Windvlaag: 17.6 m/s
91%2 cm warningclass
11:00
Voelt als: 0.2°
992.5 hPa 3.6 mm
82%
5.3°
12
Windvlaag: 17.3 m/s
89%2 cm warningclass
12:00
Voelt als: 0.4°
992.0 hPa 3.0 mm
82%
4.3°
12
Windvlaag: 17.8 m/s
88%2 cm warningclass
13:00
Voelt als: -0.3°
992.0 hPa 2.9 mm
82%
3.5°
12
Windvlaag: 18.6 m/s
76%2 cm warningclass
14:00
Voelt als: -0.8°
992.1 hPa 2.3 mm
81%
2.3°
13
Windvlaag: 15.8 m/s
77%2 cm
15:00
Voelt als: -1.5°
992.2 hPa 3.5 mm
82%
0.8°
13
Windvlaag: 16 m/s
59%2 cm
16:00
Voelt als: -1.6°
992.2 hPa 3.7 mm
82%
0.0°
13
Windvlaag: 16.8 m/s
75%2 cm
17:00
Voelt als: -2.5°
992.0 hPa 3.3 mm
82%
0.7°
14
Windvlaag: 17.6 m/s
52%2 cm warningclass
18:00
Voelt als: -2.6°
991.8 hPa 3.3 mm
80%
-0.9°
14
Windvlaag: 17.7 m/s
43%2 cm warningclass
19:00
Voelt als: -2.9°
991.7 hPa 3.3 mm
82%
-0.5°
13
Windvlaag: 17.6 m/s
45%2 cm warningclass
20:00
Voelt als: -3.8°
991.2 hPa 3.6 mm
82%
1.0°
13
Windvlaag: 19.3 m/s
86%2 cm warningclass
21:00
Voelt als: -3.5°
991.1 hPa 2.6 mm
82%
-2.0°
15
Windvlaag: 18.7 m/s
77%2 cm warningclass
22:00
Voelt als: -4.0°
991.1 hPa 3.6 mm
82%
-1.2°
14
Windvlaag: 19.9 m/s
52%2 cm warningclass
23:00
Voelt als: -3.8°
991.0 hPa 3.5 mm
82%
-1.4°
12
Windvlaag: 17 m/s
69%2 cm warningclass
 09:47     14:45    Daglengte: 4:58 Morgen
00:00
Voelt als: -3.8°
990.6 hPa 2.6 mm
82%
1.0°
11
Windvlaag: 13.5 m/s
84%2 cm
01:00
Voelt als: -4.0°
990.1 hPa 3.0 mm
82%
-0.3°
11
Windvlaag: 13.2 m/s
89%2 cm
02:00
Voelt als: -4.0°
989.8 hPa 3.0 mm
82%
1.0°
10
Windvlaag: 13.4 m/s
82%2 cm
03:00
Voelt als: -3.7°
989.2 hPa 4.4 mm
82%
-1.2°
10
Windvlaag: 12.9 m/s
73%3 cm
04:00
Voelt als: -3.7°
988.9 hPa 3.0 mm
82%
-2.2°
11
Windvlaag: 12.5 m/s
78%3 cm
05:00
Voelt als: -3.5°
988.1 hPa 3.0 mm
82%
-2.4°
10
Windvlaag: 12.6 m/s
76%3 cm
06:00
Voelt als: -4.2°
987.6 hPa 3.5 mm
82%
0.5°
10
Windvlaag: 12.6 m/s
91%4 cm
07:00
Voelt als: -4.1°
986.7 hPa 3.7 mm
82%
-0.2°
9
Windvlaag: 13.1 m/s
87%5 cm
08:00
Voelt als: -4.4°
986.5 hPa 3.9 mm
82%
0.0°
10
Windvlaag: 11.7 m/s
87%5 cm
09:00
Voelt als: -3.4°
985.8 hPa 3.8 mm
82%
-2.1°
9
Windvlaag: 11.7 m/s
84%5 cm
10:00
Voelt als: -3.9°
985.6 hPa 4.0 mm
82%
-1.2°
8
Windvlaag: 12 m/s
86%5 cm
11:00
Voelt als: -4.1°
985.2 hPa 3.9 mm
82%
-0.9°
8
Windvlaag: 10 m/s
87%5 cm
12:00
Voelt als: -4.0°
984.9 hPa 4.0 mm
82%
-0.7°
7
Windvlaag: 10 m/s
90%6 cm
13:00
Voelt als: -4.1°
984.8 hPa 4.2 mm
82%
-0.1°
7
Windvlaag: 9.5 m/s
89%6 cm
14:00
Voelt als: -4.7°
984.8 hPa 3.9 mm
82%
-0.9°
8
Windvlaag: 9.1 m/s
82%6 cm
15:00
Voelt als: -4.6°
985.0 hPa 5.3 mm
82%
-3.5°
9
Windvlaag: 10.6 m/s
65%6 cm warningclass
16:00
Voelt als: -4.3°
985.3 hPa 5.4 mm
82%
-2.6°
9
Windvlaag: 11.6 m/s
68%6 cm warningclass
17:00
Voelt als: -4.2°
985.8 hPa 5.5 mm
82%
-3.0°
9
Windvlaag: 10.9 m/s
80%6 cm warningclass
18:00
Voelt als: -4.1°
986.1 hPa 5.3 mm
82%
-2.9°
7
Windvlaag: 11.1 m/s
76%6 cm warningclass
19:00
Voelt als: -4.6°
986.6 hPa 5.5 mm
82%
-2.9°
8
Windvlaag: 11 m/s
82%6 cm warningclass
20:00
Voelt als: -4.1°
987.1 hPa 5.5 mm
82%
-2.4°
7
Windvlaag: 10.3 m/s
89%6 cm
21:00
Voelt als: -4.3°
987.4 hPa 5.7 mm
82%
-2.7°
8
Windvlaag: 8.8 m/s
84%6 cm
22:00
Voelt als: -4.2°
987.6 hPa
100%
-4.6°
8
Windvlaag: 8.9 m/s
98%6 cm
23:00
Voelt als: -4.8°
987.8 hPa 5.7 mm
100%
-1.6°
8
Windvlaag: 9.8 m/s
93%6 cm
 09:43     14:50    Daglengte: 5:07 Zaterdag 25 Jan
00:00
Voelt als: -4.2°
988.6 hPa 5.9 mm
100%
-3.5°
7
Windvlaag: 9.4 m/s
86%7 cm
01:00
Voelt als: -4.1°
989.2 hPa 5.7 mm
100%
-0.9°
7
Windvlaag: 7.8 m/s
92%7 cm
02:00
Voelt als: -4.8°
990.0 hPa 4.1 mm
100%
-1.4°
8
Windvlaag: 9.5 m/s
94%7 cm
03:00
Voelt als: -4.1°
990.6 hPa 5.6 mm
100%
-1.7°
6
Windvlaag: 8.4 m/s
91%7 cm warningclass
04:00
Voelt als: -4.5°
991.5 hPa 4.5 mm
100%
-2.9°
7
Windvlaag: 7.7 m/s
94%7 cm warningclass
05:00
Voelt als: -4.2°
992.2 hPa 4.3 mm
100%
-0.4°
6
Windvlaag: 7.9 m/s
90%7 cm warningclass
06:00
Voelt als: -3.3°
992.8 hPa 6.1 mm
100%
-5.6°
8
Windvlaag: 9.7 m/s
71%7 cm
07:00
Voelt als: -3.8°
993.5 hPa 6.1 mm
100%
-2.4°
8
Windvlaag: 8.8 m/s
88%7 cm
08:00
Voelt als: -4.1°
995.0 hPa 10.1 mm
100%
-2.0°
6
Windvlaag: 12 m/s
82%7 cm warningclass
09:00
Voelt als: -3.9°
996.0 hPa 5.9 mm
100%
-0.3°
6
Windvlaag: 10 m/s
71%7 cm
10:00
Voelt als: -3.7°
997.0 hPa 9.5 mm
100%
-1.6°
7
Windvlaag: 11.7 m/s
80%7 cm
11:00
Voelt als: -3.5°
997.7 hPa 5.7 mm
100%
-2.4°
6
Windvlaag: 11.3 m/s
82%7 cm
12:00
Voelt als: -2.3°
998.3 hPa 9.3 mm
100%
-2.4°
4
Windvlaag: 8.9 m/s
72%7 cm
13:00
Voelt als: -2.7°
998.9 hPa 9.6 mm
100%
-4.3°
4
Windvlaag: 5.8 m/s
61%7 cm
14:00
Voelt als: -2.9°
999.0 hPa 9.5 mm
100%
-4.0°
4
Windvlaag: 4.1 m/s
67%7 cm
15:00
Voelt als: -2.7°
999.0 hPa 8.9 mm
92%
-3.4°
4
Windvlaag: 3.5 m/s
71%7 cm
16:00
Voelt als: -3.1°
999.0 hPa
89%
-3.5°
4
Windvlaag: 1.3 m/s
75%7 cm
17:00
Voelt als: -2.9°
998.9 hPa
87%
-2.9°
3
Windvlaag: 2.3 m/s
80%7 cm
18:00
Voelt als: -3.2°
999.0 hPa
40%
-2.6°
3
Windvlaag: 3.6 m/s
76%7 cm
19:00
Voelt als: -3.7°
999.1 hPa
27%
-2.5°
3
Windvlaag: 0.9 m/s
73%7 cm
20:00
-0°
Voelt als: -3.9°
999.3 hPa
25%
-2.9°
3
Windvlaag: 6 m/s
86%7 cm
21:00
-0°
Voelt als: -4.3°
999.5 hPa
21%
-2.9°
4
Windvlaag: 6.8 m/s
92%7 cm
22:00
-0°
Voelt als: -4.6°
999.5 hPa
21%
-2.9°
4
Windvlaag: 7.9 m/s
87%7 cm
23:00
-1°
Voelt als: -5.0°
999.5 hPa
21%
-3.0°
4
Windvlaag: 7.8 m/s
85%7 cm
 09:39     14:54    Daglengte: 5:15 Zondag 26 Jan
00:00
-1°
Voelt als: -5.1°
999.6 hPa
21%
-3.0°
4
Windvlaag: 6.9 m/s
91%7 cm
01:00
-1°
Voelt als: -5.3°
999.7 hPa
21%
-3.0°
4
Windvlaag: 1.1 m/s
84%7 cm
02:00
-1°
Voelt als: -6.1°
1000.7 hPa 26.4 mm
100%
-3.6°
5
Windvlaag: 8 m/s
99%7 cm warningclass
Temp/Neerslag /Baro Onweer/DauwpuntSneeuw
    Temp Baro Neerslag Dauwpunt Wind BewolkingSneeuw  
 09:51     14:41    Daglengte: 4:50 Vandaag
04:00
Voelt als: -3.5°
1004.0 hPa 1.0 mm 0.3°
6
91%2 cm
07:00
Voelt als: -2.1°
997.2 hPa 6.3 mm 3.0°
11
91%2 cm
10:00
Voelt als: -0.2°
993.5 hPa 13.1 mm 4.8°
11
91%2 cm warningclass
13:00
Voelt als: -0.3°
992.0 hPa 9.5 mm 3.5°
12
76%2 cm warningclass
16:00
Voelt als: -1.6°
992.2 hPa 9.5 mm 0.0°
13
75%2 cm
19:00
Voelt als: -2.9°
991.7 hPa 10.0 mm -0.5°
13
45%2 cm warningclass
22:00
Voelt als: -4.0°
991.1 hPa 9.8 mm -1.2°
14
52%2 cm warningclass
 09:47     14:45    Daglengte: 4:58 Morgen
01:00
Voelt als: -4.0°
990.1 hPa 9.0 mm -0.3°
11
89%2 cm
04:00
Voelt als: -3.7°
988.9 hPa 10.4 mm -2.2°
11
78%3 cm
07:00
Voelt als: -4.1°
986.7 hPa 10.3 mm -0.2°
9
87%5 cm
10:00
Voelt als: -3.9°
985.6 hPa 11.6 mm -1.2°
8
86%5 cm
13:00
Voelt als: -4.1°
984.8 hPa 12.0 mm -0.1°
7
89%6 cm
16:00
Voelt als: -4.3°
985.3 hPa 14.6 mm -2.6°
9
68%6 cm warningclass
19:00
Voelt als: -4.6°
986.6 hPa 16.2 mm -2.9°
8
82%6 cm warningclass
22:00
Voelt als: -4.2°
987.6 hPa 11.1 mm -4.6°
8
98%6 cm
 09:43     14:50    Daglengte: 5:07 Zaterdag 25 Jan
01:00
Voelt als: -4.1°
989.2 hPa 17.4 mm -0.9°
7
92%7 cm
04:00
Voelt als: -4.5°
991.5 hPa 14.2 mm -2.9°
7
94%7 cm warningclass
07:00
Voelt als: -3.8°
993.5 hPa 16.5 mm -2.4°
8
88%7 cm
10:00
Voelt als: -3.7°
997.0 hPa 25.5 mm -1.6°
7
80%7 cm
13:00
Voelt als: -2.7°
998.9 hPa 24.6 mm -4.3°
4
61%7 cm
16:00
Voelt als: -3.1°
999.0 hPa 18.5 mm -3.5°
4
75%7 cm warningclass
19:00
Voelt als: -3.7°
999.1 hPa   -2.5°
3
73%7 cm
22:00
-0°
Voelt als: -4.6°
999.5 hPa   -2.9°
4
87%7 cm
 09:39     14:54    Daglengte: 5:15 Zondag 26 Jan
01:00
-1°
Voelt als: -5.3°
999.7 hPa   -3.0°
4
84%7 cm
04:00
-1°
Voelt als: -7.3°
1001.2 hPa 79.1 mm -4.9°
7
100%7 cm warningclass
07:00
-1°
Voelt als: -8.5°
1001.8 hPa 79.1 mm -6.5°
9
100%7 cm warningclass
10:00
-1°
Voelt als: -7.6°
1001.1 hPa 47.5 mm -5.4°
9
92%
13:00
-0°
Voelt als: -7.2°
999.9 hPa 49.5 mm -4.8°
9
92%
16:00
-1°
Voelt als: -7.4°
999.4 hPa 54.5 mm -4.7°
9
92%
19:00
-1°
Voelt als: -7.4°
998.9 hPa 56.6 mm -4.6°
9
92%
22:00
-1°
Voelt als: -7.8°
998.3 hPa 58.3 mm -4.9°
9
92%
 09:35     14:59    Daglengte: 5:24 Maandag 27 Jan
01:00
-1°
Voelt als: -8.3°
997.7 hPa 58.5 mm -5.2°
9
92%
04:00
-1°
Voelt als: -8.2°
997.3 hPa 58.5 mm -5.7°
9
92%
07:00
-1°
Voelt als: -8.2°
997.0 hPa 58.5 mm -6.3°
9
92%
10:00
-1°
Voelt als: -8.2°
996.3 hPa 58.5 mm -6.6°
9
92%
13:00
-1°
Voelt als: -8.5°
995.5 hPa 58.6 mm -6.9°
9
92%
16:00
-2°
Voelt als: -8.6°
994.3 hPa 58.6 mm -6.8°
9
92%
19:00
-2°
Voelt als: -8.6°
993.2 hPa 58.6 mm -6.8°
9
92%
22:00
-2°
Voelt als: -8.8°
990.9 hPa 58.9 mm -6.9°
9
92%
 09:31     15:03    Daglengte: 5:32 Dinsdag 28 Jan
01:00
-2°
Voelt als: -8.9°
988.5 hPa 59.0 mm -7.0°
8
92%
04:00
-2°
Voelt als: -9.2°
986.6 hPa 59.0 mm -7.2°
8
92%
07:00
-2°
Voelt als: -9.6°
984.6 hPa 59.0 mm -7.5°
8
92%
10:00
-2°
Voelt als: -9.5°
983.7 hPa 59.0 mm -7.4°
8
92%
13:00
-2°
Voelt als: -9.3°
982.8 hPa 59.0 mm -7.3°
8
92%
16:00
-2°
Voelt als: -9.4°
981.1 hPa 59.1 mm -7.5°
8
92%
19:00
-3°
Voelt als: -9.6°
979.5 hPa 59.1 mm -7.9°
7
92%
22:00
-3°
Voelt als: -9.2°
978.6 hPa 59.2 mm -7.6°
7
92%
 09:27     15:07    Daglengte: 5:40 Woensdag 29 Jan
01:00
-3°
Voelt als: -8.8°
977.7 hPa 59.2 mm -7.0°
6
92%
04:00
-3°
Voelt als: -9.0°
978.0 hPa 59.2 mm -7.2°
6
92%
07:00
-3°
Voelt als: -9.3°
978.3 hPa 59.2 mm -7.5°
6
92%
10:00
-3°
Voelt als: -8.9°
979.5 hPa 59.2 mm -7.3°
6
91%
13:00
-3°
Voelt als: -8.4°
980.7 hPa 59.2 mm -7.2°
5
90%
16:00
-3°
Voelt als: -8.6°
981.3 hPa 59.2 mm -7.3°
5
90%
19:00
-3°
Voelt als: -8.8°
981.9 hPa 59.2 mm -7.4°
5
90%
22:00
-3°
Voelt als: -8.3°
982.3 hPa 59.3 mm -7.1°
5
86%
 09:23     15:12    Daglengte: 5:49 Donderdag 30 Jan
01:00
-3°
Voelt als: -8.1°
982.7 hPa 118.9 mm -6.6°
5
82%
07:00
-3°
Voelt als: -9.0°
985.2 hPa 119.7 mm -7.2°
5
88%
13:00
-4°
Voelt als: -10.0°
987.6 hPa 119.8 mm -8.2°
5
88%
19:00
-4°
Voelt als: -9.8°
988.2 hPa 119.8 mm -8.3°
4
87%
 09:19     15:16    Daglengte: 5:57 Vrijdag 31 Jan
01:00
-4°
Voelt als: -8.5°
989.4 hPa 119.8 mm -7.6°
3
73%
07:00
-3°
Voelt als: -8.3°
987.6 hPa 119.8 mm -6.5°
5
89%
13:00
-4°
Voelt als: -8.6°
990.6 hPa 119.8 mm -7.1°
4
75%
19:00
-3°
Voelt als: -7.6°
991.3 hPa 121.4 mm -5.7°
4
74%
 09:14     15:20    Daglengte: 6:06 Zaterdag 01 Feb
01:00
-2°
Voelt als: -7.9°
993.8 hPa 127.6 mm -6.3°
5
75%
07:00
-2°
Voelt als: -7.2°
991.7 hPa 133.3 mm -5.4°
5
88%
13:00
Voelt als: -3.6°
997.8 hPa 139.0 mm -2.1°
7
1%
19:00
Voelt als: -4.0°
999.2 hPa 146.2 mm -2.1°
6
1%
 09:10     15:24    Daglengte: 6:14 Zondag 02 Feb
01:00
-3°
Voelt als: -5.5°
988.7 hPa 0.5 mm -6.0°
1
56%
07:00
-3°
Voelt als: -5.2°
989.8 hPa 1.0 mm -5.2°
2
68%
13:00
-2°
Voelt als: -4.1°
991.8 hPa 1.0 mm -5.0°
2
66%
19:00
-3°
Voelt als: -5.7°
992.6 hPa 0.7 mm -5.7°
2
63%
 09:06     15:29    Daglengte: 6:23 Maandag 03 Feb
01:00
-3°
Voelt als: -7.2°
992.8 hPa 0.5 mm -6.4°
3
57%
07:00
-3°
Voelt als: -6.4°
992.0 hPa 0.7 mm -5.8°
3
61%
13:00
-2°
Voelt als: -4.9°
993.2 hPa 0.7 mm -5.3°
2
66%
19:00
-2°
Voelt als: -5.2°
993.8 hPa 0.7 mm -5.8°
2
68%
 09:02     15:33    Daglengte: 6:31 Dinsdag 04 Feb
01:00
-2°
Voelt als: -5.9°
993.8 hPa 0.7 mm -5.3°
3
70%
07:00
-2°
Voelt als: -7.1°
991.6 hPa 0.9 mm -5.3°
4
76%
13:00
-1°
Voelt als: -5.9°
990.1 hPa 1.1 mm -4.5°
4
81%
19:00
-2°
Voelt als: -5.8°
989.0 hPa 1.4 mm -4.7°
3
71%
 08:58     15:37    Daglengte: 6:39 Woensdag 05 Feb
01:00
-2°
Voelt als: -5.3°
988.3 hPa 1.3 mm -4.7°
3
76%
07:00
-2°
Voelt als: -5.0°
987.9 hPa 1.1 mm -4.3°
2
76%
13:00
-1°
Voelt als: -5.0°
988.9 hPa 0.8 mm -4.3°
3
71%
19:00
-2°
Voelt als: -5.4°
988.3 hPa 0.8 mm -4.6°
3
68%
 08:54     15:41    Daglengte: 6:47 Donderdag 06 Feb
01:00
-2°
Voelt als: -5.5°
987.6 hPa 1.0 mm -4.3°
3
72%
07:00
-2°
Voelt als: -5.7°
987.3 hPa 1.1 mm -5.1°
2
71%
13:00
-1°
Voelt als: -5.3°
988.0 hPa 0.5 mm -4.4°
3
65%
19:00
-2°
Voelt als: -5.8°
989.2 hPa 0.9 mm -4.7°
3
63%
 08:50     15:45    Daglengte: 6:55 Vrijdag 07 Feb
01:00
-3°
Voelt als: -6.4°
990.2 hPa 0.8 mm -5.4°
3
61%
  CAPE Lifted Index Hail Supercell Tornado SRH 3km CL BTM PRES CL TOP PRES Swiss DWD icon SMHI TS
 09:51     14:41    Daglengte: 4:50 Vandaag
03:00 0 J/kg 0.0 K 0 % 0 % 0 % 0 m²/s² 0 0 13.83 61
04:00 0 J/kg 11.0 K 0 % 0 % 0 % 0 m²/s² 0 0 11.33 71
05:00 0 J/kg 9.2 K 0 % 0 % 0 % 0 m²/s² 0 0 9.44 71
06:00 0 J/kg 7.5 K 0 % 0 % 0 % 0 m²/s² 0 0 7.71 71
07:00 0 J/kg 7.0 K 0 % 0 % 0 % 0 m²/s² 0 0 7.24 73
08:00 0 J/kg 7.1 K 0 % 0 % 0 % 0 m²/s² 0 0 7.46 73
09:00 0 J/kg 6.5 K 0 % 0 % 0 % 0 m²/s² 0 0 6.83 73
10:00 13 J/kg 5.5 K 0 % 0 % 0 % 0 m²/s² 0 0 12.82 63
11:00 45 J/kg 5.0 K 0 % 0 % 0 % 0 m²/s² 0 0 14.87 61
12:00 97 J/kg 6.4 K 0 % 0 % 0 % 0 m²/s² 0 0 12.28 80
13:00 45 J/kg 7.6 K 0 % 0 % 0 % 0 m²/s² 0 0 11.59 80
14:00 98 J/kg 7.6 K 0 % 0 % 0 % 0 m²/s² 0 0 10.48 3
15:00 132 J/kg 8.1 K 0 % 0 % 0 % 0 m²/s² 0 0 9.78 80
16:00 181 J/kg 7.6 K 0 % 0 % 0 % 0 m²/s² 0 0 9.85 80
17:00 179 J/kg 7.9 K 0 % 0 % 0 % 0 m²/s² 0 0 9.01 80
18:00 110 J/kg 9.0 K 0 % 0 % 0 % 0 m²/s² 0 0 9.96 80
19:00 126 J/kg 8.5 K 0 % 0 % 0 % 0 m²/s² 0 0 9.46 85
20:00 159 J/kg 7.4 K 0 % 0 % 0 % 0 m²/s² 0 0 8.63 85
21:00 8 J/kg 8.7 K 0 % 0 % 0 % 0 m²/s² 0 0 10.92 85
22:00 39 J/kg 6.9 K 0 % 0 % 0 % 0 m²/s² 0 0 10.29 85
23:00 117 J/kg 4.5 K 0 % 0 % 0 % 0 m²/s² 0 0 6.27 85
 09:47     14:45    Daglengte: 4:58 Morgen
00:00 154 J/kg 3.2 K 0 % 0 % 0 % 0 m²/s² 0 0 3.98 85
01:00 80 J/kg 1.4 K 0 % 0 % 0 % 0 m²/s² 0 0 2.21 85
02:00 88 J/kg 0.5 K 0 % 0 % 0 % 0 m²/s² 0 0 1.31 86
03:00 214 J/kg -0.3 K 0 % 0 % 0 % 0 m²/s² 0 0 1.08 86
04:00 199 J/kg 0.1 K 0 % 0 % 0 % 0 m²/s² 0 0 1.9 85
05:00 11 J/kg 0.5 K 0 % 0 % 0 % 0 m²/s² 0 0 1.16 85
06:00 0 J/kg 0.3 K 0 % 0 % 0 % 0 m²/s² 0 0 0.96 86
07:00 143 J/kg 0.3 K 0 % 0 % 0 % 0 m²/s² 0 0 3.15 86
08:00 186 J/kg 0.1 K 0 % 0 % 0 % 0 m²/s² 0 0 2.44 86
09:00 77 J/kg 0.7 K 0 % 0 % 0 % 0 m²/s² 0 0 3.13 86
10:00 40 J/kg 1.1 K 0 % 0 % 0 % 0 m²/s² 0 0 2.81 86
11:00 145 J/kg 0.1 K 0 % 0 % 0 % 0 m²/s² 0 0 2.32 86
12:00 101 J/kg 0.2 K 0 % 0 % 0 % 0 m²/s² 0 0 0.92 86
13:00 188 J/kg 0.0 K 0 % 0 % 0 % 0 m²/s² 0 0 1.29 86
14:00 273 J/kg -0.8 K 0 % 0 % 0 % 0 m²/s² 0 0 0.07 86
15:00 235 J/kg -0.4 K 0 % 0 % 0 % 0 m²/s² 0 0 0.83 95
16:00 290 J/kg -1.3 K 0 % 0 % 0 % 0 m²/s² 0 0 0.77 95
17:00 138 J/kg -0.1 K 0 % 0 % 0 % 0 m²/s² 0 0 0.95 95
18:00 112 J/kg 0.8 K 0 % 0 % 0 % 0 m²/s² 0 0 1.61 95
19:00 161 J/kg 0.9 K 0 % 0 % 0 % 0 m²/s² 0 0 1.74 95
20:00 229 J/kg 0.4 K 0 % 0 % 0 % 0 m²/s² 0 0 1.6 86
21:00 151 J/kg 1.2 K 0 % 0 % 0 % 0 m²/s² 0 0 2.43 86
22:00 215 J/kg 0.1 K 0 % 0 % 0 % 0 m²/s² 0 0 0.82 86
23:00 91 J/kg 0.7 K 0 % 0 % 0 % 0 m²/s² 0 0 1.72 86
 09:43     14:50    Daglengte: 5:07 Zaterdag 25 Jan
00:00 91 J/kg 0.3 K 0 % 0 % 0 % 0 m²/s² 0 0 1.74 86
01:00 159 J/kg -0.2 K 0 % 0 % 0 % 0 m²/s² 0 0 1.12 86
02:00 205 J/kg 0.0 K 0 % 0 % 0 % 0 m²/s² 0 0 0.6 86
03:00 100 J/kg 1.0 K 0 % 0 % 0 % 0 m²/s² 0 0 2.05 85
04:00 97 J/kg 1.3 K 0 % 0 % 0 % 0 m²/s² 0 0 3.49 85
05:00 53 J/kg 1.2 K 0 % 0 % 0 % 0 m²/s² 0 0 4.41 86
06:00 8 J/kg 1.1 K 0 % 0 % 0 % 0 m²/s² 0 0 2.9 86
07:00 62 J/kg 0.3 K 0 % 0 % 0 % 0 m²/s² 0 0 2.1 86
08:00 237 J/kg -0.5 K 0 % 0 % 0 % 0 m²/s² 0 0 2.56 95
09:00 165 J/kg 0.3 K 0 % 0 % 0 % 0 m²/s² 0 0 1.41 86
10:00 220 J/kg 0.4 K 0 % 0 % 0 % 0 m²/s² 0 0 1.99 85
11:00 140 J/kg 1.2 K 0 % 0 % 0 % 0 m²/s² 0 0 3.54 85
12:00 151 J/kg 1.8 K 0 % 0 % 0 % 0 m²/s² 0 0 3.9 85
13:00 157 J/kg 1.8 K 0 % 0 % 0 % 0 m²/s² 0 0 3.39 86
14:00 124 J/kg 2.8 K 0 % 0 % 0 % 0 m²/s² 0 0 5.23 86
15:00 85 J/kg 3.7 K 0 % 0 % 0 % 0 m²/s² 0 0 7.39 85
16:00 51 J/kg 5.2 K 0 % 0 % 0 % 0 m²/s² 0 0 8.53 71
17:00 0 J/kg 6.8 K 0 % 0 % 0 % 0 m²/s² 0 0 10.16 3
18:00 0 J/kg 7.7 K 0 % 0 % 0 % 0 m²/s² 0 0 11.15 3
19:00 0 J/kg 9.3 K 0 % 0 % 0 % 0 m²/s² 0 0 11.61 3
20:00 0 J/kg 10.5 K 0 % 0 % 0 % 0 m²/s² 0 0 12.75 2
21:00 0 J/kg 11.0 K 0 % 0 % 0 % 0 m²/s² 0 0 12.68 3
22:00 0 J/kg 11.3 K 0 % 0 % 0 % 0 m²/s² 0 0 13.85 1
23:00 0 J/kg 10.3 K 0 % 0 % 0 % 0 m²/s² 0 0 13.63 2
 09:39     14:54    Daglengte: 5:15 Zondag 26 Jan
00:00 0 J/kg 10.7 K 0 % 0 % 0 % 0 m²/s² 0 0 15.17 3
01:00 0 J/kg 10.4 K 0 % 0 % 0 % 0 m²/s² 0 0 16.34 0
02:00 0 J/kg 9.8 K 0 % 0 % 0 % 0 m²/s² 0 0 16.64
Temp Baro Wind Neerslag
  EWN Forecast EWN WRFDA DWD ICON FMI HIRLAM MET Norway GFS
 09:51     14:41    Daglengte: 4:50 Vandaag
04:00 1.4° 1004.0 hPa 5.6 m/s 1.0 mm 1.4° 1000.2 hPa 4.7 m/s 2.5 mm 1.6° 1004.2 hPa 5.3 m/s -0.4 mm 2.1° 1003.6 hPa 5.8 m/s 0.0 mm 0.8° 1005.7 hPa 5.5 m/s 0.3° 1004.2 hPa 8.7 m/s
07:00 3.9° 997.2 hPa 10.8 m/s 6.3 mm 4.4° 992.8 hPa 13.7 m/s 12.2 mm 0.9° 998.5 hPa 4.0 m/s 5.1 mm 3.9° 996.7 hPa 12.9 m/s 0.0 mm 4.0° 998.0 hPa 8.9 m/s 1.2° 997.8 hPa 8.4 m/s
10:00 5.4° 993.5 hPa 11.4 m/s 13.1 mm 5.1° 990.2 hPa 12.2 m/s 31.5 mm 1.8° 995.2 hPa 3.2 m/s 12.9 mm 6.6° 992.9 hPa 11.4 m/s 0.0 mm 5.7° 993.6 hPa 12.2 m/s 4.8° 994.0 hPa 7.2 m/s
13:00 5.4° 992.0 hPa 11.7 m/s 9.5 mm 4.1° 989.7 hPa 11.4 m/s 44.7 mm 5.8° 993.3 hPa 11.1 m/s 3.9 mm 5.4° 992.6 hPa 13.3 m/s 0.0 mm 5.2° 992.0 hPa 11.3 m/s 5.0° 992.0 hPa 11.6 m/s
16:00 4.6° 992.2 hPa 13.0 m/s 9.5 mm 3.6° 989.2 hPa 8.5 m/s 46.3 mm 4.7° 992.8 hPa 12.7 m/s 2.0 mm 4.3° 994.3 hPa 13.1 m/s 0.0 mm 4.6° 991.9 hPa 14.4 m/s 2.9° 990.8 hPa 11.7 m/s
19:00 3.7° 991.7 hPa 13.2 m/s 10.0 mm 3.1° 988.3 hPa 8.7 m/s 47.5 mm 3.3° 992.8 hPa 12.1 m/s 0.7 mm 3.3° 994.0 hPa 10.6 m/s 0.0 mm 3.8° 991.1 hPa 14.9 m/s 2.9° 990.4 hPa 12.9 m/s
22:00 3.0° 991.1 hPa 13.7 m/s 9.8 mm 2.4° 988.9 hPa 11.1 m/s 48.4 mm 2.6° 992.8 hPa 11.1 m/s 1.4 mm 2.6° 993.5 hPa 12.9 m/s 0.0 mm 2.9° 990.7 hPa 15.0 m/s 3.0° 990.7 hPa 16.6 m/s
 09:47     14:45    Daglengte: 4:58 Morgen
01:00 2.6° 990.1 hPa 11.4 m/s 9.0 mm 1.2° 987.5 hPa 9.3 m/s 48.8 mm 2.5° 991.3 hPa 9.8 m/s 1.6 mm 2.7° 991.9 hPa 12.5 m/s 0.0 mm 1.6° 990.0 hPa 11.5 m/s 0.8° 990.3 hPa 10.4 m/s
04:00 2.7° 988.9 hPa 10.7 m/s 10.4 mm 1.2° 987.1 hPa 9.2 m/s 53.1 mm 2.1° 989.3 hPa 10.7 m/s 4.0 mm 2.4° 990.7 hPa 11.4 m/s 0.0 mm 2.7° 988.8 hPa 10.1 m/s 2.4° 989.5 hPa 9.0 m/s
07:00 2.0° 986.7 hPa 9.1 m/s 10.3 mm 0.0° 984.8 hPa 7.9 m/s 61.8 mm 1.9° 987.6 hPa 11.1 m/s 3.4 mm 2.2° 989.4 hPa 9.1 m/s 0.0 mm 1.5° 986.5 hPa 6.7 m/s 2.6° 987.7 hPa 13.0 m/s
10:00 1.8° 985.6 hPa 7.8 m/s 11.6 mm 0.9° 982.1 hPa 7.7 m/s 67.8 mm 1.6° 985.9 hPa 9.4 m/s 4.0 mm 2.0° 987.5 hPa 6.1 m/s 0.0 mm 1.1° 985.8 hPa 6.9 m/s 1.9° 985.8 hPa 9.6 m/s
13:00 1.4° 984.8 hPa 7.1 m/s 12.0 mm 0.8° 982.5 hPa 5.4 m/s 68.5 mm 1.3° 984.7 hPa 9.1 m/s 4.6 mm 2.0° 987.4 hPa 7.1 m/s 0.0 mm 0.4° 984.9 hPa 3.9 m/s 0.4° 985.3 hPa 4.3 m/s
16:00 1.7° 985.3 hPa 8.6 m/s 14.6 mm 0.4° 983.0 hPa 8.5 m/s 70.0 mm 0.9° 985.0 hPa 8.2 m/s 4.1 mm 1.7° 988.1 hPa 8.9 m/s 0.0 mm 1.7° 985.6 hPa 8.6 m/s 1.2° 985.5 hPa 8.4 m/s
19:00 1.4° 986.6 hPa 8.1 m/s 16.2 mm 0.6° 983.1 hPa 9.1 m/s 71.0 mm 1.2° 986.2 hPa 7.9 m/s 3.9 mm 1.9° 988.3 hPa 8.3 m/s 0.0 mm 1.0° 987.3 hPa 8.0 m/s 1.5° 986.5 hPa 8.8 m/s
22:00 1.5° 987.6 hPa 7.6 m/s 11.1 mm -0.1° 985.5 hPa 8.0 m/s 72.2 mm 1.4° 987.7 hPa 9.1 m/s 3.8 mm 1.4° 988.7 hPa 5.1 m/s 1.0° 988.1 hPa 9.3 m/s
 09:43     14:50    Daglengte: 5:07 Zaterdag 25 Jan
01:00 1.4° 989.2 hPa 6.9 m/s 17.4 mm 0.3° 987.0 hPa 5.5 m/s 74.5 mm 1.5° 988.9 hPa 9.0 m/s 4.7 mm 1.2° 991.1 hPa 6.6 m/s 1.1° 990.1 hPa 8.9 m/s
04:00 1.1° 991.5 hPa 6.9 m/s 14.2 mm 0.3° 989.8 hPa 5.9 m/s 76.8 mm 1.6° 991.0 hPa 9.3 m/s 3.1 mm 0.7° 993.3 hPa 6.5 m/s 0.8° 992.7 hPa 7.2 m/s
07:00 1.9° 993.5 hPa 7.7 m/s 16.5 mm 0.1° 991.4 hPa 6.4 m/s 77.1 mm 1.7° 993.2 hPa 8.5 m/s 4.9 mm 1.9° 995.3 hPa 7.6 m/s 0.6° 995.2 hPa 7.0 m/s
10:00 1.6° 997.0 hPa 6.6 m/s 25.5 mm 1.0° 993.4 hPa 6.1 m/s 78.6 mm 1.8° 996.7 hPa 2.9 m/s 4.7 mm 1.6° 997.9 hPa 8.0 m/s 1.3° 996.7 hPa 6.2 m/s
13:00 1.5° 998.9 hPa 4.4 m/s 24.6 mm 0.8° 995.2 hPa 3.3 m/s 78.9 mm 1.8° 998.6 hPa 5.7 m/s 3.1 mm 1.6° 999.8 hPa 4.3 m/s 0.2° 998.3 hPa 5.3 m/s
16:00 0.8° 999.0 hPa 3.7 m/s 18.5 mm -1.3° 996.8 hPa 1.1 m/s 78.9 mm 2.0° 998.6 hPa 6.0 m/s 1.4 mm 0.9° 999.7 hPa 3.6 m/s -1.6° 999.6 hPa 5.2 m/s
19:00 0.0° 999.1 hPa 3.3 m/s 0.0 mm -2.9° 998.4 hPa 4.8 m/s 79.0 mm 1.0° 998.5 hPa 3.3 m/s 0.0 mm 0.2° 999.6 hPa 3.0 m/s -1.5° 1001.4 hPa 3.7 m/s
22:00 -0.4° 999.5 hPa 3.8 m/s 0.0 mm -2.1° 999.0 hPa 5.1 m/s 79.0 mm 0.6° 998.5 hPa 3.5 m/s 0.0 mm -0.4° 1000.1 hPa 3.8 m/s -1.7° 1003.2 hPa 3.5 m/s
 09:39     14:54    Daglengte: 5:15 Zondag 26 Jan
01:00 -0.6° 999.7 hPa 4.4 m/s 0.0 mm -0.5° 999.4 hPa 4.6 m/s 79.0 mm 0.3° 997.7 hPa 3.7 m/s 0.0 mm -0.9° 1000.6 hPa 4.5 m/s -1.6° 1004.3 hPa 4.7 m/s
04:00 -1.1° 1001.2 hPa 6.9 m/s 79.1 mm -2.0° 999.5 hPa 9.9 m/s 79.1 mm -1.0° 1001.5 hPa 6.3 m/s -1.1° 1003.9 hPa 6.2 m/s
07:00 -1.4° 1001.8 hPa 8.8 m/s 79.1 mm -3.4° 999.1 hPa 12.1 m/s 79.1 mm -1.1° 1002.3 hPa 8.2 m/s -2.0° 1003.0 hPa 8.6 m/s
10:00 -0.8° 1001.1 hPa 8.5 m/s 47.5 mm -0.6° 1001.0 hPa 8.4 m/s -3.6° 1002.8 hPa 9.9 m/s 47.5 mm
13:00 -0.5° 999.9 hPa 8.7 m/s 49.5 mm -0.1° 999.7 hPa 8.6 m/s -4.7° 1002.5 hPa 9.9 m/s 49.5 mm
16:00 -0.6° 999.4 hPa 8.7 m/s 54.5 mm -0.2° 999.2 hPa 8.6 m/s -5.5° 1001.8 hPa 10.7 m/s 54.5 mm
19:00 -0.7° 998.9 hPa 8.6 m/s 56.6 mm -0.2° 998.7 hPa 8.5 m/s -5.8° 1001.3 hPa 10.3 m/s 56.6 mm
22:00 -0.9° 998.3 hPa 8.7 m/s 58.3 mm -0.6° 998.1 hPa 8.6 m/s -4.9° 1000.5 hPa 10.4 m/s 58.3 mm
 09:35     14:59    Daglengte: 5:24 Maandag 27 Jan
01:00 -1.3° 997.7 hPa 8.8 m/s 58.5 mm -0.9° 997.5 hPa 8.6 m/s -5.2° 999.6 hPa 10.8 m/s 58.5 mm
04:00 -1.2° 997.3 hPa 8.8 m/s 58.5 mm -0.9° 997.3 hPa 8.8 m/s -4.2° 997.4 hPa 9.8 m/s 58.5 mm
07:00 -1.2° 997.0 hPa 8.9 m/s 58.5 mm -0.9° 997.1 hPa 8.9 m/s -4.1° 996.3 hPa 9.4 m/s 58.5 mm
10:00 -1.3° 996.3 hPa 8.7 m/s 58.5 mm -1.1° 996.2 hPa 8.8 m/s -3.5° 996.3 hPa 7.9 m/s 58.5 mm
13:00 -1.5° 995.5 hPa 8.7 m/s 58.6 mm -1.2° 995.4 hPa 8.7 m/s -4.3° 996.3 hPa 8.1 m/s 58.6 mm
16:00 -1.5° 994.3 hPa 8.7 m/s 58.6 mm -1.2° 994.1 hPa 8.7 m/s -4.6° 996.2 hPa 8.1 m/s 58.6 mm
19:00 -1.6° 993.2 hPa 8.6 m/s 58.6 mm -1.3° 992.9 hPa 8.7 m/s -4.7° 996.4 hPa 7.7 m/s 58.6 mm
22:00 -1.7° 990.9 hPa 8.5 m/s 58.9 mm -1.5° 990.4 hPa 8.6 m/s -5.0° 996.4 hPa 8.2 m/s 58.9 mm
 09:31     15:03    Daglengte: 5:32 Dinsdag 28 Jan
01:00 -1.8° 988.5 hPa 8.4 m/s 59.0 mm -1.6° 987.9 hPa 8.4 m/s -4.3° 995.2 hPa 8.1 m/s 59.0 mm
04:00 -2.1° 986.6 hPa 8.4 m/s 59.0 mm -1.9° 986.1 hPa 8.4 m/s -4.7° 991.9 hPa 8.6 m/s 59.0 mm
07:00 -2.4° 984.6 hPa 8.5 m/s 59.0 mm -2.1° 984.3 hPa 8.3 m/s -5.5° 988.0 hPa 10.5 m/s 59.0 mm
10:00 -2.3° 983.7 hPa 8.3 m/s 59.0 mm -2.0° 983.6 hPa 8.0 m/s -5.4° 984.6 hPa 11.8 m/s 59.0 mm
13:00 -2.3° 982.8 hPa 8.1 m/s 59.0 mm -2.0° 983.0 hPa 7.6 m/s -5.0° 980.3 hPa 13.8 m/s 59.0 mm
16:00 -2.5° 981.1 hPa 7.7 m/s 59.1 mm -2.3° 981.5 hPa 7.3 m/s -4.5° 976.6 hPa 11.2 m/s 59.1 mm
19:00 -2.7° 979.5 hPa 7.4 m/s 59.1 mm -2.6° 980.0 hPa 7.1 m/s -4.3° 973.9 hPa 10.6 m/s 59.1 mm
22:00 -2.7° 978.6 hPa 6.7 m/s 59.2 mm -2.5° 979.1 hPa 6.5 m/s -5.4° 972.6 hPa 9.1 m/s 59.2 mm
 09:27     15:07    Daglengte: 5:40 Woensdag 29 Jan
01:00 -2.5° 977.7 hPa 6.3 m/s 59.2 mm -2.3° 978.3 hPa 5.9 m/s -5.0° 971.3 hPa 10.9 m/s 59.2 mm
04:00 -2.7° 978.0 hPa 6.1 m/s 59.2 mm -2.6° 978.8 hPa 5.8 m/s -3.9° 970.0 hPa 9.9 m/s 59.2 mm
07:00 -3.0° 978.3 hPa 6.1 m/s 59.2 mm -2.9° 979.2 hPa 5.7 m/s -3.6° 968.6 hPa 10.5 m/s 59.2 mm
10:00 -2.8° 979.5 hPa 5.8 m/s 59.2 mm -2.8° 980.5 hPa 5.4 m/s -3.6° 967.9 hPa 10.5 m/s 59.2 mm
13:00 -2.6° 980.7 hPa 5.5 m/s 59.2 mm -2.6° 981.9 hPa 5.1 m/s -2.1° 967.2 hPa 9.6 m/s 59.2 mm
16:00 -2.8° 981.3 hPa 5.4 m/s 59.2 mm -2.9° 982.8 hPa 4.9 m/s -1.2° 965.4 hPa 9.9 m/s 59.2 mm
19:00 -3.0° 981.9 hPa 5.2 m/s 59.2 mm -3.2° 983.6 hPa 4.8 m/s -1.0° 963.4 hPa 9.7 m/s 59.2 mm
22:00 -2.8° 982.3 hPa 4.9 m/s 59.3 mm -3.0° 983.9 hPa 4.8 m/s -1.2° 964.5 hPa 5.3 m/s 59.3 mm
 09:23     15:12    Daglengte: 5:49 Donderdag 30 Jan
01:00 -2.5° 982.7 hPa 5.0 m/s 59.7 mm -2.7° 984.2 hPa 4.9 m/s -0.8° 966.6 hPa 6.2 m/s 59.7 mm
07:00 -3.1° 985.2 hPa 5.4 m/s 59.9 mm -3.3° 987.0 hPa 5.3 m/s -0.9° 965.8 hPa 6.6 m/s 59.9 mm
13:00 -4.0° 987.6 hPa 5.0 m/s 59.9 mm -4.3° 989.8 hPa 5.0 m/s -0.9° 963.6 hPa 5.3 m/s 59.9 mm
19:00 -4.4° 988.2 hPa 4.1 m/s 59.9 mm -4.7° 990.3 hPa 4.3 m/s -1.1° 964.9 hPa 2.4 m/s 59.9 mm
 09:19     15:16    Daglengte: 5:57 Vrijdag 31 Jan
01:00 -4.0° 989.4 hPa 3.2 m/s 59.9 mm -4.3° 991.4 hPa 3.3 m/s -0.7° 967.6 hPa 1.8 m/s 59.9 mm
07:00 -2.9° 987.6 hPa 4.7 m/s 59.9 mm -3.1° 989.1 hPa 4.9 m/s -0.7° 970.7 hPa 2.0 m/s 59.9 mm
13:00 -3.5° 990.6 hPa 4.0 m/s 59.9 mm -3.9° 991.9 hPa 4.2 m/s 0.5° 976.7 hPa 2.2 m/s 59.9 mm
19:00 -2.7° 991.3 hPa 4.0 m/s 61.3 mm -3.1° 992.2 hPa 3.7 m/s 1.3° 981.6 hPa 7.5 m/s 61.3 mm
 09:14     15:20    Daglengte: 6:06 Zaterdag 01 Feb
01:00 -2.5° 993.8 hPa 4.8 m/s 64.4 mm -2.9° 994.7 hPa 4.4 m/s 2.5° 983.6 hPa 9.5 m/s 64.4 mm
07:00 -1.8° 991.7 hPa 5.0 m/s 67.4 mm -2.2° 991.8 hPa 4.4 m/s 2.4° 990.4 hPa 11.6 m/s 67.4 mm
13:00 1.9° 997.8 hPa 7.1 m/s 70.6 mm 1.9° 997.8 hPa 7.1 m/s 70.6 mm
19:00 1.3° 999.2 hPa 6.3 m/s 73.8 mm 1.3° 999.2 hPa 6.3 m/s 73.8 mm
 09:10     15:24    Daglengte: 6:14 Zondag 02 Feb
01:00 -3.4° 988.7 hPa 1.4 m/s 0.5 mm
07:00 -2.5° 989.8 hPa 1.8 m/s 1.0 mm
13:00 -1.9° 991.8 hPa 1.6 m/s 1.0 mm
19:00 -2.7° 992.6 hPa 2.0 m/s 0.7 mm
 09:06     15:29    Daglengte: 6:23 Maandag 03 Feb
01:00 -3.3° 992.8 hPa 2.8 m/s 0.5 mm
07:00 -2.6° 992.0 hPa 2.8 m/s 0.7 mm
13:00 -2.0° 993.2 hPa 2.1 m/s 0.7 mm
19:00 -2.5° 993.8 hPa 1.9 m/s 0.7 mm
 09:02     15:33    Daglengte: 6:31 Dinsdag 04 Feb
01:00 -2.2° 993.8 hPa 2.8 m/s 0.7 mm
07:00 -2.3° 991.6 hPa 4.0 m/s 0.9 mm
13:00 -1.3° 990.1 hPa 4.0 m/s 1.1 mm
19:00 -2.0° 989.0 hPa 2.9 m/s 1.4 mm
 08:58     15:37    Daglengte: 6:39 Woensdag 05 Feb
01:00 -1.9° 988.3 hPa 2.5 m/s 1.3 mm
07:00 -1.8° 987.9 hPa 2.3 m/s 1.1 mm
13:00 -1.2° 988.9 hPa 3.0 m/s 0.8 mm
19:00 -1.7° 988.3 hPa 2.8 m/s 0.8 mm
 08:54     15:41    Daglengte: 6:47 Donderdag 06 Feb
01:00 -1.6° 987.6 hPa 3.0 m/s 1.0 mm
07:00 -2.2° 987.3 hPa 2.5 m/s 1.1 mm
13:00 -1.3° 988.0 hPa 3.4 m/s 0.5 mm
19:00 -1.9° 989.2 hPa 3.0 m/s 0.9 mm
 08:50     15:45    Daglengte: 6:55 Vrijdag 07 Feb
01:00 -2.6° 990.2 hPa 2.8 m/s 0.8 mm
FMI Hirlam - 7.5 km EWN WRFDA - 12 km DWD ICON - 7 km GFS - 25 km Basiskaart






























































Updatetijd (Europe/Amsterdam) Resolutie Lengte Stap
FMI Hirlam 00:00, 06:00, 12:00, 18:00 7.5 km 49h 1h
EWN WRFDA 02:30, 08:30, 14:30, 20:30 12 km 73h 1h
DWD ICON 22:45, 04:45, 10:45, 16:45 7 km 75h 1h
GFS 01:30, 07:30, 13:30, 19:30 25 km 237h 3h
30+ mm
25-30 mm
20-25 mm
15-20 mm
10-15 mm
6-10 mm
4-6 mm
2-4 mm
1-2 mm
0.5-1 mm
0.2-0.5 mm
0.1-0.2 mm
30+ mm
25-30 mm
20-25 mm
15-20 mm
10-15 mm
6-10 mm
4-6 mm
2-4 mm
1-2 mm
0.5-1 mm
0.2-0.5 mm
0.1-0.2 mm
Sneeuwval
Natte sneeuw
Hagel
Vorst
30+ mm
25-30 mm
20-25 mm
15-20 mm
10-15 mm
6-10 mm
4-6 mm
2-4 mm
1-2 mm
0.5-1 mm
0.2-0.5 mm
0.1-0.2 mm
Sneeuwval
Natte sneeuw
Hagel
Vorst
Onweer
50 mm
40 mm
30 mm
26 mm
22 mm
18 mm
14 mm
10 mm
9 mm
8 mm
7 mm
6 mm
5 mm
4.5 mm
4 mm
3.5 mm
3 mm
2.5 mm
2 mm
1.5 mm
1 mm
0.8 mm
0.6 mm
0.4 mm
0.2 mm
0.05 mm
35°
30°
25°
20°
15°
10°
-5°
-10°
-15°
-20°
-25°
-30°
-35°
33> m/s
29 m/s
25 m/s
21 m/s
17 m/s
14 m/s
11 m/s
8 m/s
5 m/s
3 m/s
0 m/s
2600 J/kg
2400 J/kg
2200 J/kg
2000 J/kg
1800 J/kg
1600 J/kg
1400 J/kg
1200 J/kg
1000 J/kg
800 J/kg
600 J/kg
400 J/kg
200 J/kg
70 dBZ
65 dBZ
60 dBZ
55 dBZ
50 dBZ
45 dBZ
40 dBZ
35 dBZ
30 dBZ
25 dBZ
20 dBZ
15 dBZ
10 dBZ
5 dBZ
-1 K
-2 K
-3 K
-4 K
-5 K
-6 K
-7 K
-8 K
-9 K
950 m²/s²
900 m²/s²
850 m²/s²
800 m²/s²
750 m²/s²
700 m²/s²
650 m²/s²
600 m²/s²
550 m²/s²
500 m²/s²
450 m²/s²
400 m²/s²
350 m²/s²
300 m²/s²
250 m²/s²
200 m²/s²
150 m²/s²
100 m²/s²
46 m/s
44 m/s
42 m/s
40 m/s
38 m/s
36 m/s
34 m/s
32 m/s
30 m/s
28 m/s
26 m/s
24 m/s
22 m/s
20 m/s
16 m/s
12 m/s
8 m/s
4 m/s
30 m/s
28 m/s
26 m/s
24 m/s
22 m/s
20 m/s
18 m/s
16 m/s
14 m/s
12 m/s
10 m/s
8 m/s
6 m/s
4 m/s
2 m/s
3.0
2.8
2.6
2.4
2.2
2.0
1.8
1.6
1.4
1.2
1.0
0.8
0.6
0.4
0.2
15
14
13
12
11
10
9
8
7
6
5
4
3
2
1
90%
80%
70%
60%
50%
40%
30%
20%
10%
42
40
38
36
34
32
30
28
26
24
22
20
18
16
14
12
90+ cm
80-90 cm
70-80 cm
60-70 cm
50-60 cm
40-50 cm
30-40 cm
20-30 cm
10-20 cm
1-10 cm
Sneeuwval
Natte sneeuw
Regen
>120 mm
115 mm
110 mm
105 mm
100 mm
95 mm
90 mm
85 mm
80 mm
75 mm
70 mm
65 mm
60 mm
55 mm
50 mm
45 mm
45 mm
40 mm
35 mm
30 mm
25 mm
20 mm
15 mm
10 mm
5 mm
0.1 mm
960 hPa
880 hPa
800 hPa
720 hPa
640 hPa
560 hPa
584 gpdm
568 gpdm
552 gpdm
536 gpdm
520 gpdm
504 gpdm
488 gpdm
Extreem zwaar Noodweer Kans op onweer
15% 15% 5% 50% 15%

Dag




Kaart






35°
30°
25°
20°
15°
10°
-5°
-10°